Time,TemperatureF,DewpointF,PressureIn,WindDirection,WindDirectionDegrees,WindSpeedMPH,WindSpeedGustMPH,Humidity,HourlyPrecipIn,Conditions,Clouds,dailyrainin,SoftwareType,DateUTC
2013-04-06 00:00:00,51.1,36.8,29.44,North,0,3.4,3.4,58,0.00,,---,0.00,VWS V14.01,2013-04-06 06:00:00,
2013-04-06 00:05:00,50.9,36.7,29.44,North,0,3.4,3.4,58,0.00,,---,0.00,VWS V14.01,2013-04-06 06:05:00,
2013-04-06 00:10:00,50.7,36.9,29.44,North,0,3.4,3.4,59,0.00,,---,0.00,VWS V14.01,2013-04-06 06:10:00,
2013-04-06 00:15:00,50.4,37.0,29.44,North,0,3.4,3.4,60,0.00,,---,0.00,VWS V14.01,2013-04-06 06:15:00,
2013-04-06 00:20:00,50.2,37.3,29.44,North,0,3.4,3.4,61,0.00,,---,0.00,VWS V14.01,2013-04-06 06:20:00,
2013-04-06 00:25:00,50.2,37.3,29.44,North,0,3.4,3.4,61,0.00,,---,0.00,VWS V14.01,2013-04-06 06:25:00,
2013-04-06 00:30:00,50.2,37.3,29.47,North,0,3.4,3.4,61,0.00,,---,0.00,VWS V14.01,2013-04-06 06:30:00,
2013-04-06 00:35:00,50.0,37.5,29.47,North,0,3.4,3.4,62,0.00,,---,0.00,VWS V14.01,2013-04-06 06:35:00,
2013-04-06 00:40:00,49.8,37.3,29.47,North,0,3.4,3.4,62,0.00,,---,0.00,VWS V14.01,2013-04-06 06:40:00,
2013-04-06 00:45:00,49.8,37.3,29.47,North,0,3.4,3.4,62,0.00,,---,0.00,VWS V14.01,2013-04-06 06:45:00,
2013-04-06 00:50:00,49.8,37.3,29.47,North,0,3.4,3.4,62,0.00,,---,0.00,VWS V14.01,2013-04-06 06:50:00,
2013-04-06 00:55:00,49.6,37.2,29.47,North,0,3.4,3.4,62,0.00,,---,0.00,VWS V14.01,2013-04-06 06:55:00,
2013-04-06 01:00:00,49.8,37.8,29.47,North,0,3.4,3.4,63,0.00,,---,0.00,VWS V14.01,2013-04-06 07:00:00,
2013-04-06 01:05:00,49.8,37.8,29.47,North,0,3.4,3.4,63,0.00,,---,0.00,VWS V14.01,2013-04-06 07:05:00,
2013-04-06 01:10:00,49.6,37.6,29.47,North,0,3.4,3.4,63,0.00,,---,0.00,VWS V14.01,2013-04-06 07:10:00,
2013-04-06 01:15:00,49.5,37.8,29.47,North,0,3.4,3.4,64,0.00,,---,0.00,VWS V14.01,2013-04-06 07:15:00,
2013-04-06 01:20:00,49.5,37.8,29.47,NNW,338,2.7,2.7,64,0.00,,---,0.00,VWS V14.01,2013-04-06 07:20:00,
2013-04-06 01:25:00,49.6,38.0,29.47,NNW,338,2.7,2.7,64,0.00,,---,0.00,VWS V14.01,2013-04-06 07:25:00,
2013-04-06 01:30:00,49.6,38.0,29.47,ENE,68,4.7,4.7,64,0.00,,---,0.00,VWS V14.01,2013-04-06 07:30:00,
2013-04-06 01:35:00,49.6,38.0,29.47,ENE,68,4.7,4.7,64,0.00,,---,0.00,VWS V14.01,2013-04-06 07:35:00,
2013-04-06 01:40:00,49.6,38.0,29.47,ENE,68,4.7,4.7,64,0.00,,---,0.00,VWS V14.01,2013-04-06 07:40:00,
2013-04-06 01:45:00,49.6,37.6,29.47,North,0,4.0,4.0,63,0.00,,---,0.00,VWS V14.01,2013-04-06 07:45:00,
2013-04-06 01:50:00,49.6,37.6,29.47,North,0,4.0,4.0,63,0.00,,---,0.00,VWS V14.01,2013-04-06 07:50:00,
2013-04-06 01:55:00,49.6,37.6,29.47,North,0,4.0,4.0,63,0.00,,---,0.00,VWS V14.01,2013-04-06 07:55:00,
2013-04-06 02:00:00,49.6,37.6,29.47,North,0,4.0,4.0,63,0.00,,---,0.00,VWS V14.01,2013-04-06 08:00:00,
2013-04-06 02:05:00,49.6,37.6,29.47,North,0,4.0,4.0,63,0.00,,---,0.00,VWS V14.01,2013-04-06 08:05:00,
2013-04-06 02:10:00,49.6,37.6,29.47,North,0,4.0,4.0,63,0.00,,---,0.00,VWS V14.01,2013-04-06 08:10:00,
2013-04-06 02:15:00,49.6,37.6,29.47,North,0,4.0,4.0,63,0.00,,---,0.00,VWS V14.01,2013-04-06 08:15:00,
2013-04-06 02:20:00,49.6,37.6,29.47,North,0,4.0,4.0,63,0.00,,---,0.00,VWS V14.01,2013-04-06 08:20:00,
2013-04-06 02:25:00,49.6,37.6,29.47,North,0,4.0,4.0,63,0.00,,---,0.00,VWS V14.01,2013-04-06 08:25:00,
2013-04-06 02:30:00,49.5,37.0,29.47,North,0,4.0,4.0,62,0.00,,---,0.00,VWS V14.01,2013-04-06 08:30:00,
2013-04-06 02:35:00,49.5,37.0,29.47,North,0,4.0,4.0,62,0.00,,---,0.00,VWS V14.01,2013-04-06 08:35:00,
2013-04-06 02:40:00,49.6,37.2,29.47,NNW,338,0.9,4.0,62,0.00,,---,0.00,VWS V14.01,2013-04-06 08:40:00,
2013-04-06 02:45:00,49.6,38.0,29.47,NNW,338,0.9,0.9,64,0.00,,---,0.00,VWS V14.01,2013-04-06 08:45:00,
2013-04-06 02:50:00,49.3,38.0,29.47,NNW,338,0.9,0.9,65,0.00,,---,0.00,VWS V14.01,2013-04-06 08:50:00,
2013-04-06 02:55:00,49.1,38.2,29.47,NNW,338,0.9,0.9,66,0.00,,---,0.00,VWS V14.01,2013-04-06 08:55:00,
2013-04-06 03:00:00,48.9,38.8,29.47,NNW,338,0.9,0.9,68,0.00,,---,0.00,VWS V14.01,2013-04-06 09:00:00,
2013-04-06 03:05:00,48.7,38.7,29.47,NNW,338,0.9,0.9,68,0.00,,---,0.00,VWS V14.01,2013-04-06 09:05:00,
2013-04-06 03:10:00,48.7,38.7,29.50,NNW,338,0.9,0.9,68,0.00,,---,0.00,VWS V14.01,2013-04-06 09:10:00,
2013-04-06 03:15:00,48.7,38.7,29.50,NNW,338,0.9,0.9,68,0.00,,---,0.00,VWS V14.01,2013-04-06 09:15:00,
2013-04-06 03:20:00,48.7,38.7,29.50,NNW,338,0.9,0.9,68,0.00,,---,0.00,VWS V14.01,2013-04-06 09:20:00,
2013-04-06 03:25:00,48.7,38.7,29.50,NNW,338,0.9,0.9,68,0.00,,---,0.00,VWS V14.01,2013-04-06 09:25:00,
2013-04-06 03:30:00,48.7,38.7,29.50,NNW,338,0.9,0.9,68,0.00,,---,0.00,VWS V14.01,2013-04-06 09:30:00,
2013-04-06 03:35:00,48.6,38.5,29.50,NNW,338,0.9,0.9,68,0.00,,---,0.00,VWS V14.01,2013-04-06 09:35:00,
2013-04-06 03:40:00,48.6,38.1,29.50,NNW,338,0.9,0.9,67,0.00,,---,0.00,VWS V14.01,2013-04-06 09:40:00,
2013-04-06 03:45:00,48.2,37.8,29.50,NNW,338,0.9,0.9,67,0.00,,---,0.00,VWS V14.01,2013-04-06 09:45:00,
2013-04-06 03:50:00,47.7,37.6,29.50,NNW,338,0.9,0.9,68,0.00,,---,0.00,VWS V14.01,2013-04-06 09:50:00,
2013-04-06 03:55:00,47.5,37.5,29.50,NNW,338,0.9,0.9,68,0.00,,---,0.00,VWS V14.01,2013-04-06 09:55:00,
2013-04-06 04:00:00,47.3,37.3,29.50,NNW,338,0.9,0.9,68,0.00,,---,0.00,VWS V14.01,2013-04-06 10:00:00,
2013-04-06 04:05:00,47.3,37.7,29.50,NNW,338,0.9,0.9,69,0.00,,---,0.00,VWS V14.01,2013-04-06 10:05:00,
2013-04-06 04:11:00,47.1,37.5,29.50,NNW,338,0.9,0.9,69,0.00,,---,0.00,VWS V14.01,2013-04-06 10:11:00,
2013-04-06 04:16:00,47.1,37.8,29.50,NNW,338,0.9,0.9,70,0.00,,---,0.00,VWS V14.01,2013-04-06 10:16:00,
2013-04-06 04:20:00,46.9,37.7,29.50,NNW,338,0.9,0.9,70,0.00,,---,0.00,VWS V14.01,2013-04-06 10:20:00,
2013-04-06 04:25:00,46.8,38.2,29.50,NNW,338,0.9,0.9,72,0.00,,---,0.00,VWS V14.01,2013-04-06 10:25:00,
2013-04-06 04:31:00,46.8,38.6,29.50,NNW,338,0.9,0.9,73,0.00,,---,0.00,VWS V14.01,2013-04-06 10:31:00,
2013-04-06 04:36:00,46.6,38.4,29.50,NNW,338,0.9,0.9,73,0.00,,---,0.00,VWS V14.01,2013-04-06 10:36:00,
2013-04-06 04:40:00,46.2,38.1,29.50,NNW,338,0.9,0.9,73,0.00,,---,0.00,VWS V14.01,2013-04-06 10:40:00,
2013-04-06 04:45:00,45.9,38.0,29.50,NNW,338,0.9,0.9,74,0.00,,---,0.00,VWS V14.01,2013-04-06 10:45:00,
2013-04-06 04:50:00,45.5,37.7,29.50,NNW,338,0.9,0.9,74,0.00,,---,0.00,VWS V14.01,2013-04-06 10:50:00,
2013-04-06 04:55:00,45.1,37.7,29.50,NNW,338,0.9,0.9,75,0.00,,---,0.00,VWS V14.01,2013-04-06 10:55:00,
2013-04-06 05:00:00,44.8,37.3,29.50,NNW,338,0.9,0.9,75,0.00,,---,0.00,VWS V14.01,2013-04-06 11:00:00,
2013-04-06 05:06:00,44.6,37.5,29.50,NNW,338,0.9,0.9,76,0.00,,---,0.00,VWS V14.01,2013-04-06 11:06:00,
2013-04-06 05:11:00,44.1,37.0,29.50,SSW,202,0.0,0.0,76,0.00,,---,0.00,VWS V14.01,2013-04-06 11:11:00,
2013-04-06 05:16:00,44.1,37.3,29.50,SSW,202,0.0,0.0,77,0.00,,---,0.00,VWS V14.01,2013-04-06 11:16:00,
2013-04-06 05:21:00,43.9,37.5,29.50,SSW,202,0.0,0.0,78,0.00,,---,0.00,VWS V14.01,2013-04-06 11:21:00,
2013-04-06 05:26:00,43.7,37.6,29.50,SSW,202,0.0,0.0,79,0.00,,---,0.00,VWS V14.01,2013-04-06 11:26:00,
2013-04-06 05:31:00,43.3,37.0,29.50,SSW,202,0.0,0.0,78,0.00,,---,0.00,VWS V14.01,2013-04-06 11:31:00,
2013-04-06 05:33:00,43.2,36.8,29.50,SSW,202,0.0,0.0,78,0.00,,---,0.00,VWS V14.01,2013-04-06 11:33:00,
2013-04-06 05:38:00,42.8,36.8,29.50,SE,135,0.0,0.0,79,0.00,,---,0.00,VWS V14.01,2013-04-06 11:38:00,
2013-04-06 05:43:00,42.8,36.8,29.50,SE,135,0.0,0.0,79,0.00,,---,0.00,VWS V14.01,2013-04-06 11:43:00,
2013-04-06 05:48:00,42.4,36.7,29.50,South,180,0.0,0.0,80,0.00,,---,0.00,VWS V14.01,2013-04-06 11:48:00,
2013-04-06 05:53:00,42.1,36.7,29.50,South,180,0.0,0.0,81,0.00,,---,0.00,VWS V14.01,2013-04-06 11:53:00,
2013-04-06 05:58:00,41.7,36.3,29.50,South,180,0.0,0.0,81,0.00,,---,0.00,VWS V14.01,2013-04-06 11:58:00,
2013-04-06 06:03:00,41.2,35.8,29.50,South,180,0.0,0.0,81,0.00,,---,0.00,VWS V14.01,2013-04-06 12:03:00,
2013-04-06 06:08:00,40.8,35.8,29.50,South,180,0.0,0.0,82,0.00,,---,0.00,VWS V14.01,2013-04-06 12:08:00,
2013-04-06 06:13:00,40.5,35.7,29.47,WSW,248,0.0,0.0,83,0.00,,---,0.00,VWS V14.01,2013-04-06 12:13:00,
2013-04-06 06:18:00,39.9,35.2,29.47,WSW,248,0.0,0.0,83,0.00,,---,0.00,VWS V14.01,2013-04-06 12:18:00,
2013-04-06 06:23:00,39.7,35.0,29.47,WSW,248,0.0,0.0,83,0.00,,---,0.00,VWS V14.01,2013-04-06 12:23:00,
2013-04-06 06:28:00,39.7,35.0,29.50,WSW,248,0.0,0.0,83,0.00,,---,0.00,VWS V14.01,2013-04-06 12:28:00,
2013-04-06 06:33:00,39.6,34.8,29.50,WSW,248,0.0,0.0,83,0.00,,---,0.00,VWS V14.01,2013-04-06 12:33:00,
2013-04-06 06:38:00,39.7,35.0,29.50,NNW,338,0.0,0.0,83,0.00,,---,0.00,VWS V14.01,2013-04-06 12:38:00,
2013-04-06 06:43:00,40.6,36.2,29.50,NNW,338,0.0,0.0,84,0.00,,---,0.00,VWS V14.01,2013-04-06 12:43:00,
2013-04-06 06:48:00,42.1,37.3,29.50,NNW,338,0.0,0.0,83,0.00,,---,0.00,VWS V14.01,2013-04-06 12:48:00,
2013-04-06 06:53:00,42.4,36.7,29.50,NNW,338,0.0,0.0,80,0.00,,---,0.00,VWS V14.01,2013-04-06 12:53:00,
2013-04-06 06:58:00,42.6,36.6,29.50,NNW,338,2.0,2.0,79,0.00,,---,0.00,VWS V14.01,2013-04-06 12:58:00,
2013-04-06 07:03:00,42.8,35.8,29.50,NNW,338,2.0,2.0,76,0.00,,---,0.00,VWS V14.01,2013-04-06 13:03:00,
2013-04-06 07:08:00,44.1,35.3,29.50,NNW,338,2.0,2.0,71,0.00,,---,0.00,VWS V14.01,2013-04-06 13:08:00,
2013-04-06 07:13:00,45.5,34.8,29.53,NNW,338,1.3,1.3,66,0.00,,---,0.00,VWS V14.01,2013-04-06 13:13:00,
2013-04-06 07:18:00,46.6,34.7,29.53,WSW,248,2.9,2.9,63,0.00,,---,0.00,VWS V14.01,2013-04-06 13:18:00,
2013-04-06 07:23:00,47.5,34.3,29.53,WSW,248,2.9,2.9,60,0.00,,---,0.00,VWS V14.01,2013-04-06 13:23:00,
2013-04-06 07:28:00,48.4,33.9,29.53,WSW,248,2.9,2.9,57,0.00,,---,0.00,VWS V14.01,2013-04-06 13:28:00,
2013-04-06 07:33:00,49.3,33.8,29.53,WSW,248,2.9,2.9,55,0.00,,---,0.00,VWS V14.01,2013-04-06 13:33:00,
2013-04-06 07:38:00,50.0,34.0,29.53,WSW,248,2.9,2.9,54,0.00,,---,0.00,VWS V14.01,2013-04-06 13:38:00,
2013-04-06 07:43:00,50.7,34.2,29.53,WSW,248,2.9,2.9,53,0.00,,---,0.00,VWS V14.01,2013-04-06 13:43:00,
2013-04-06 07:48:00,51.4,34.4,29.53,WSW,248,2.9,2.9,52,0.00,,---,0.00,VWS V14.01,2013-04-06 13:48:00,
2013-04-06 07:53:00,52.5,34.9,29.53,WSW,248,2.9,2.9,51,0.00,,---,0.00,VWS V14.01,2013-04-06 13:53:00,
2013-04-06 07:58:00,54.0,35.8,29.53,WSW,248,2.9,2.9,50,0.00,,---,0.00,VWS V14.01,2013-04-06 13:58:00,
2013-04-06 08:03:00,54.9,36.1,29.53,WSW,248,2.9,2.9,49,0.00,,---,0.00,VWS V14.01,2013-04-06 14:03:00,
2013-04-06 08:08:00,55.4,35.0,29.53,WSW,248,2.9,2.9,46,0.00,,---,0.00,VWS V14.01,2013-04-06 14:08:00,
2013-04-06 08:13:00,55.9,34.9,29.53,WSW,248,2.9,2.9,45,0.00,,---,0.00,VWS V14.01,2013-04-06 14:13:00,
2013-04-06 08:18:00,56.5,34.8,29.53,WSW,248,2.9,2.9,44,0.00,,---,0.00,VWS V14.01,2013-04-06 14:18:00,
2013-04-06 08:23:00,56.7,35.0,29.53,NW,315,7.4,7.4,44,0.00,,---,0.00,VWS V14.01,2013-04-06 14:23:00,
2013-04-06 08:28:00,57.0,34.8,29.53,NW,315,7.4,7.4,43,0.00,,---,0.00,VWS V14.01,2013-04-06 14:28:00,
2013-04-06 08:33:00,57.2,34.9,29.53,NW,315,7.4,7.4,43,0.00,,---,0.00,VWS V14.01,2013-04-06 14:33:00,
2013-04-06 08:38:00,57.7,34.8,29.53,NW,315,7.4,7.4,42,0.00,,---,0.00,VWS V14.01,2013-04-06 14:38:00,
2013-04-06 08:43:00,57.9,35.0,29.53,NW,315,7.4,7.4,42,0.00,,---,0.00,VWS V14.01,2013-04-06 14:43:00,
2013-04-06 08:48:00,58.3,34.7,29.53,NW,315,7.4,7.4,41,0.00,,---,0.00,VWS V14.01,2013-04-06 14:48:00,
2013-04-06 08:53:00,58.6,35.0,29.53,NW,315,7.4,7.4,41,0.00,,---,0.00,VWS V14.01,2013-04-06 14:53:00,
2013-04-06 08:58:00,58.5,34.9,29.53,NW,315,7.4,7.4,41,0.00,,---,0.00,VWS V14.01,2013-04-06 14:58:00,
2013-04-06 09:03:00,58.8,35.2,29.53,NW,315,7.4,7.4,41,0.00,,---,0.00,VWS V14.01,2013-04-06 15:03:00,
2013-04-06 09:08:00,59.4,35.1,29.53,NW,315,7.4,7.4,40,0.00,,---,0.00,VWS V14.01,2013-04-06 15:08:00,
2013-04-06 09:13:00,59.7,35.4,29.53,NW,315,7.4,7.4,40,0.00,,---,0.00,VWS V14.01,2013-04-06 15:13:00,
2013-04-06 09:18:00,59.7,35.4,29.53,NW,315,7.4,7.4,40,0.00,,---,0.00,VWS V14.01,2013-04-06 15:18:00,
2013-04-06 09:23:00,60.3,35.9,29.53,NW,315,7.4,7.4,40,0.00,,---,0.00,VWS V14.01,2013-04-06 15:23:00,
2013-04-06 09:28:00,60.3,35.9,29.53,NW,315,7.4,7.4,40,0.00,,---,0.00,VWS V14.01,2013-04-06 15:28:00,
2013-04-06 09:33:00,60.8,36.3,29.53,NW,315,7.4,7.4,40,0.00,,---,0.00,VWS V14.01,2013-04-06 15:33:00,
2013-04-06 09:38:00,61.0,36.5,29.53,NW,315,7.4,7.4,40,0.00,,---,0.00,VWS V14.01,2013-04-06 15:38:00,
2013-04-06 09:43:00,61.2,36.7,29.53,NW,315,7.4,7.4,40,0.00,,---,0.00,VWS V14.01,2013-04-06 15:43:00,
2013-04-06 09:48:00,61.3,36.2,29.53,NW,315,7.4,7.4,39,0.00,,---,0.00,VWS V14.01,2013-04-06 15:48:00,
2013-04-06 09:53:00,61.5,36.3,29.53,NW,315,7.4,7.4,39,0.00,,---,0.00,VWS V14.01,2013-04-06 15:53:00,
2013-04-06 09:58:00,62.2,37.0,29.50,North,0,5.8,7.8,39,0.00,,---,0.00,VWS V14.01,2013-04-06 15:58:00,
2013-04-06 10:06:00,62.6,37.3,29.50,WNW,292,5.8,5.8,39,0.00,,---,0.00,VWS V14.01,2013-04-06 16:06:00,
2013-04-06 10:13:00,62.8,37.5,29.53,North,0,5.4,5.4,39,0.00,,---,0.00,VWS V14.01,2013-04-06 16:13:00,
2013-04-06 10:20:00,63.3,38.0,29.53,NNE,22,5.8,6.3,39,0.00,,---,0.00,VWS V14.01,2013-04-06 16:20:00,
2013-04-06 10:25:00,63.3,38.0,29.53,WNW,292,4.3,4.9,39,0.00,,---,0.00,VWS V14.01,2013-04-06 16:25:00,
2013-04-06 10:30:00,63.9,37.8,29.53,West,270,6.3,6.3,38,0.00,,---,0.00,VWS V14.01,2013-04-06 16:30:00,
2013-04-06 10:35:00,64.0,37.9,29.53,NW,315,7.6,7.6,38,0.00,,---,0.00,VWS V14.01,2013-04-06 16:35:00,
2013-04-06 10:40:00,64.8,38.6,29.53,NNW,338,6.0,6.0,38,0.00,,---,0.00,VWS V14.01,2013-04-06 16:40:00,
2013-04-06 12:00:00,69.4,38.3,29.50,North,0,5.4,7.6,32,0.00,,---,0.00,VWS V14.01,2013-04-06 18:00:00,
2013-04-06 12:05:00,69.1,38.0,29.50,NNE,22,10.1,10.1,32,0.00,,---,0.00,VWS V14.01,2013-04-06 18:05:00,
2013-04-06 12:10:00,69.3,38.2,29.50,NNE,22,7.6,7.6,32,0.00,,---,0.00,VWS V14.01,2013-04-06 18:10:00,
2013-04-06 12:15:00,69.1,38.0,29.50,North,0,3.6,11.0,32,0.00,,---,0.00,VWS V14.01,2013-04-06 18:15:00,
2013-04-06 12:20:00,70.7,39.4,29.50,North,0,3.8,3.8,32,0.00,,---,0.00,VWS V14.01,2013-04-06 18:20:00,
2013-04-06 12:25:00,70.5,39.3,29.50,NW,315,6.3,6.5,32,0.00,,---,0.00,VWS V14.01,2013-04-06 18:25:00,
2013-04-06 12:30:00,70.9,39.6,29.50,NW,315,4.0,7.8,32,0.00,,---,0.00,VWS V14.01,2013-04-06 18:30:00,
2013-04-06 12:35:00,71.2,39.9,29.50,NNW,338,2.7,6.9,32,0.00,,---,0.00,VWS V14.01,2013-04-06 18:35:00,
2013-04-06 12:40:00,69.8,38.6,29.50,WNW,292,4.0,6.7,32,0.00,,---,0.00,VWS V14.01,2013-04-06 18:40:00,
2013-04-06 12:45:00,68.4,37.4,29.50,West,270,6.0,6.0,32,0.00,,---,0.00,VWS V14.01,2013-04-06 18:45:00,
2013-04-06 12:50:00,67.6,36.8,29.50,NW,315,8.1,8.1,32,0.00,,---,0.00,VWS V14.01,2013-04-06 18:50:00,
2013-04-06 12:55:00,66.6,35.8,29.50,WNW,292,4.9,5.4,32,0.00,,---,0.00,VWS V14.01,2013-04-06 18:55:00,
2013-04-06 13:00:00,65.7,35.8,29.53,NW,315,3.1,6.5,33,0.00,,---,0.00,VWS V14.01,2013-04-06 19:00:00,
2013-04-06 13:05:00,65.3,35.5,29.53,East,90,2.9,2.9,33,0.00,,---,0.00,VWS V14.01,2013-04-06 19:05:00,
2013-04-06 13:10:00,64.9,35.2,29.53,NNW,338,6.9,6.9,33,0.00,,---,0.00,VWS V14.01,2013-04-06 19:10:00,
2013-04-06 13:15:00,64.8,35.0,29.50,NNW,338,3.1,3.1,33,0.00,,---,0.00,VWS V14.01,2013-04-06 19:15:00,
2013-04-06 13:20:00,64.8,35.0,29.50,WNW,292,3.6,3.6,33,0.00,,---,0.00,VWS V14.01,2013-04-06 19:20:00,
2013-04-06 13:25:00,64.8,35.0,29.50,North,0,4.0,8.5,33,0.00,,---,0.00,VWS V14.01,2013-04-06 19:25:00,
2013-04-06 13:30:00,69.6,38.5,29.50,WSW,248,2.9,4.9,32,0.00,,---,0.00,VWS V14.01,2013-04-06 19:30:00,
2013-04-06 13:35:00,70.9,39.6,29.50,NE,45,7.2,7.2,32,0.00,,---,0.00,VWS V14.01,2013-04-06 19:35:00,
2013-04-06 13:40:00,68.7,37.7,29.50,NW,315,4.3,7.4,32,0.00,,---,0.00,VWS V14.01,2013-04-06 19:40:00,
2013-04-06 13:45:00,68.7,37.7,29.50,North,0,5.8,5.8,32,0.00,,---,0.00,VWS V14.01,2013-04-06 19:45:00,
2013-04-06 13:50:00,69.4,38.3,29.50,NNW,338,5.4,5.4,32,0.00,,---,0.00,VWS V14.01,2013-04-06 19:50:00,
2013-04-06 13:55:00,72.1,39.9,29.50,NE,45,6.7,6.7,31,0.00,,---,0.00,VWS V14.01,2013-04-06 19:55:00,
2013-04-06 14:00:00,72.1,39.9,29.47,East,90,3.4,5.8,31,0.00,,---,0.00,VWS V14.01,2013-04-06 20:00:00,
2013-04-06 14:05:00,72.0,39.7,29.47,NNW,338,4.0,5.6,31,0.00,,---,0.00,VWS V14.01,2013-04-06 20:05:00,
2013-04-06 14:10:00,72.0,39.7,29.47,NW,315,7.8,7.8,31,0.00,,---,0.00,VWS V14.01,2013-04-06 20:10:00,
2013-04-06 14:15:00,72.5,40.2,29.47,NNW,338,3.1,9.6,31,0.00,,---,0.00,VWS V14.01,2013-04-06 20:15:00,
2013-04-06 14:20:00,70.2,36.5,29.47,NW,315,5.4,8.1,29,0.00,,---,0.00,VWS V14.01,2013-04-06 20:20:00,
2013-04-06 14:25:00,68.7,36.1,29.47,NNW,338,6.0,7.6,30,0.00,,---,0.00,VWS V14.01,2013-04-06 20:25:00,
2013-04-06 14:30:00,67.5,35.0,29.47,NW,315,3.6,5.4,30,0.00,,---,0.00,VWS V14.01,2013-04-06 20:30:00,
2013-04-06 14:35:00,67.6,36.8,29.47,North,0,8.7,8.7,32,0.00,,---,0.00,VWS V14.01,2013-04-06 20:35:00,
2013-04-06 14:40:00,67.3,34.8,29.47,NE,45,5.6,5.6,30,0.00,,---,0.00,VWS V14.01,2013-04-06 20:40:00,
2013-04-06 14:45:00,69.1,36.4,29.47,NE,45,4.3,6.5,30,0.00,,---,0.00,VWS V14.01,2013-04-06 20:45:00,
2013-04-06 14:50:00,71.2,39.9,29.47,NW,315,7.4,7.4,32,0.00,,---,0.00,VWS V14.01,2013-04-06 20:50:00,
2013-04-06 14:55:00,68.9,37.8,29.47,North,0,4.3,4.3,32,0.00,,---,0.00,VWS V14.01,2013-04-06 20:55:00,
2013-04-06 15:00:00,68.4,37.4,29.47,NNW,338,5.8,12.1,32,0.00,,---,0.00,VWS V14.01,2013-04-06 21:00:00,
2013-04-06 15:05:00,68.0,37.1,29.47,NNW,338,3.6,6.5,32,0.00,,---,0.00,VWS V14.01,2013-04-06 21:05:00,
2013-04-06 15:10:00,67.8,36.9,29.47,NNW,338,7.8,7.8,32,0.00,,---,0.00,VWS V14.01,2013-04-06 21:10:00,
2013-04-06 15:15:00,66.9,36.1,29.47,SSW,202,3.4,3.4,32,0.00,,---,0.00,VWS V14.01,2013-04-06 21:15:00,
2013-04-06 15:20:00,67.8,36.9,29.47,NNW,338,2.7,4.9,32,0.00,,---,0.00,VWS V14.01,2013-04-06 21:20:00,
2013-04-06 15:25:00,69.4,38.3,29.47,NNW,338,6.0,6.0,32,0.00,,---,0.00,VWS V14.01,2013-04-06 21:25:00,
2013-04-06 15:30:00,68.9,37.8,29.44,North,0,2.7,4.0,32,0.00,,---,0.00,VWS V14.01,2013-04-06 21:30:00,
2013-04-06 15:35:00,67.6,36.8,29.44,North,0,4.3,4.3,32,0.00,,---,0.00,VWS V14.01,2013-04-06 21:35:00,
2013-04-06 15:40:00,67.5,36.6,29.44,NNW,338,4.3,8.5,32,0.00,,---,0.00,VWS V14.01,2013-04-06 21:40:00,
2013-04-06 15:45:00,67.1,36.3,29.44,North,0,7.6,7.6,32,0.00,,---,0.00,VWS V14.01,2013-04-06 21:45:00,
2013-04-06 15:50:00,66.0,36.1,29.44,NNW,338,3.6,3.6,33,0.00,,---,0.00,VWS V14.01,2013-04-06 21:50:00,
2013-04-06 15:55:00,66.6,35.8,29.44,North,0,3.4,3.4,32,0.00,,---,0.00,VWS V14.01,2013-04-06 21:55:00,
2013-04-06 16:00:00,68.4,37.4,29.44,North,0,4.0,4.0,32,0.00,,---,0.00,VWS V14.01,2013-04-06 22:00:00,
2013-04-06 16:05:00,67.5,36.6,29.44,North,0,4.0,4.0,32,0.00,,---,0.00,VWS V14.01,2013-04-06 22:05:00,
2013-04-06 16:10:00,67.8,36.9,29.44,North,0,6.3,6.3,32,0.00,,---,0.00,VWS V14.01,2013-04-06 22:10:00,
2013-04-06 16:15:00,69.3,38.2,29.44,NE,45,5.4,5.4,32,0.00,,---,0.00,VWS V14.01,2013-04-06 22:15:00,
2013-04-06 16:20:00,67.3,36.4,29.44,NE,45,5.4,5.4,32,0.00,,---,0.00,VWS V14.01,2013-04-06 22:20:00,
2013-04-06 16:25:00,65.8,36.0,29.44,NE,45,5.4,5.4,33,0.00,,---,0.00,VWS V14.01,2013-04-06 22:25:00,
2013-04-06 16:30:00,65.1,35.3,29.44,NE,45,5.4,5.4,33,0.00,,---,0.00,VWS V14.01,2013-04-06 22:30:00,
2013-04-06 16:35:00,64.9,35.2,29.44,NE,45,5.4,5.4,33,0.00,,---,0.00,VWS V14.01,2013-04-06 22:35:00,
2013-04-06 16:40:00,64.8,35.0,29.44,NE,45,5.4,5.4,33,0.00,,---,0.00,VWS V14.01,2013-04-06 22:40:00,
2013-04-06 16:45:00,64.2,34.5,29.44,NE,45,5.4,5.4,33,0.00,,---,0.00,VWS V14.01,2013-04-06 22:45:00,
2013-04-06 16:50:00,64.2,34.5,29.44,NE,45,5.4,5.4,33,0.00,,---,0.00,VWS V14.01,2013-04-06 22:50:00,
2013-04-06 16:55:00,64.4,34.7,29.44,NE,45,5.4,5.4,33,0.00,,---,0.00,VWS V14.01,2013-04-06 22:55:00,
2013-04-06 17:00:00,64.4,34.7,29.44,NE,45,5.4,5.4,33,0.00,,---,0.00,VWS V14.01,2013-04-06 23:00:00,
2013-04-06 17:05:00,65.7,35.8,29.44,North,0,6.5,6.5,33,0.00,,---,0.00,VWS V14.01,2013-04-06 23:05:00,
2013-04-06 17:10:00,64.9,35.2,29.44,North,0,6.5,6.5,33,0.00,,---,0.00,VWS V14.01,2013-04-06 23:10:00,
2013-04-06 17:15:00,64.4,34.7,29.44,North,0,6.5,6.5,33,0.00,,---,0.00,VWS V14.01,2013-04-06 23:15:00,
2013-04-06 17:20:00,63.7,34.1,29.44,North,0,6.5,6.5,33,0.00,,---,0.00,VWS V14.01,2013-04-06 23:20:00,
2013-04-06 17:25:00,63.1,33.6,29.47,North,0,6.5,6.5,33,0.00,,---,0.00,VWS V14.01,2013-04-06 23:25:00,
2013-04-06 17:30:00,63.0,33.4,29.47,North,0,6.5,6.5,33,0.00,,---,0.00,VWS V14.01,2013-04-06 23:30:00,
2013-04-06 17:35:00,62.6,33.1,29.47,North,0,6.5,6.5,33,0.00,,---,0.00,VWS V14.01,2013-04-06 23:35:00,
2013-04-06 17:40:00,62.2,33.5,29.47,NNE,22,4.3,5.6,34,0.00,,---,0.00,VWS V14.01,2013-04-06 23:40:00,
2013-04-06 17:45:00,62.1,33.4,29.47,NNE,22,5.6,5.6,34,0.00,,---,0.00,VWS V14.01,2013-04-06 23:45:00,
2013-04-06 17:50:00,61.9,33.2,29.47,NNE,22,5.6,5.6,34,0.00,,---,0.00,VWS V14.01,2013-04-06 23:50:00,
2013-04-06 17:55:00,61.5,32.9,29.47,NNE,22,5.6,5.6,34,0.00,,---,0.00,VWS V14.01,2013-04-06 23:55:00,
2013-04-06 18:00:00,61.3,32.8,29.47,NNE,22,5.6,5.6,34,0.00,,---,0.00,VWS V14.01,2013-04-07 00:00:00,
2013-04-06 18:05:00,61.3,32.8,29.47,NNE,22,5.6,5.6,34,0.00,,---,0.00,VWS V14.01,2013-04-07 00:05:00,
2013-04-06 18:10:00,61.5,32.9,29.47,NNE,22,5.6,5.6,34,0.00,,---,0.00,VWS V14.01,2013-04-07 00:10:00,
2013-04-06 18:15:00,63.1,33.6,29.47,NNE,22,5.6,5.6,33,0.00,,---,0.00,VWS V14.01,2013-04-07 00:15:00,
2013-04-06 18:20:00,64.6,34.8,29.47,NNE,22,5.6,5.6,33,0.00,,---,0.00,VWS V14.01,2013-04-07 00:20:00,
2013-04-06 18:25:00,64.0,34.4,29.47,NNE,22,5.6,5.6,33,0.00,,---,0.00,VWS V14.01,2013-04-07 00:25:00,
2013-04-06 18:30:00,63.3,33.8,29.47,NNE,22,5.6,5.6,33,0.00,,---,0.00,VWS V14.01,2013-04-07 00:30:00,
2013-04-06 18:35:00,63.3,33.8,29.47,NNE,22,5.6,5.6,33,0.00,,---,0.00,VWS V14.01,2013-04-07 00:35:00,
2013-04-06 18:40:00,62.4,33.7,29.47,NNE,22,5.6,5.6,34,0.00,,---,0.00,VWS V14.01,2013-04-07 00:40:00,
2013-04-06 18:45:00,61.5,32.9,29.47,North,0,1.1,1.1,34,0.00,,---,0.00,VWS V14.01,2013-04-07 00:45:00,
2013-04-06 18:50:00,60.4,32.0,29.47,North,0,1.1,1.1,34,0.00,,---,0.00,VWS V14.01,2013-04-07 00:50:00,
2013-04-06 18:55:00,59.7,31.3,29.47,North,0,1.1,1.1,34,0.00,,---,0.00,VWS V14.01,2013-04-07 00:55:00,
2013-04-06 19:00:00,59.0,30.7,29.47,North,0,1.1,1.1,34,0.00,,---,0.00,VWS V14.01,2013-04-07 01:00:00,
2013-04-06 19:05:00,58.3,30.1,29.47,North,0,1.1,1.1,34,0.00,,---,0.00,VWS V14.01,2013-04-07 01:05:00,
2013-04-06 19:10:00,57.9,29.7,29.47,North,0,1.1,1.1,34,0.00,,---,0.00,VWS V14.01,2013-04-07 01:10:00,
2013-04-06 19:15:00,57.6,29.4,29.47,NNW,338,2.7,2.7,34,0.00,,---,0.00,VWS V14.01,2013-04-07 01:15:00,
2013-04-06 19:20:00,56.7,29.3,29.47,NNW,338,2.7,2.7,35,0.00,,---,0.00,VWS V14.01,2013-04-07 01:20:00,
2013-04-06 19:25:00,55.9,28.7,29.47,NNW,338,2.7,2.7,35,0.00,,---,0.00,VWS V14.01,2013-04-07 01:25:00,
2013-04-06 19:30:00,55.0,27.9,29.47,NNW,338,2.7,2.7,35,0.00,,---,0.00,VWS V14.01,2013-04-07 01:30:00,
2013-04-06 19:35:00,54.5,29.4,29.47,NNW,338,2.7,2.7,38,0.00,,---,0.00,VWS V14.01,2013-04-07 01:35:00,
2013-04-06 19:40:00,53.6,28.6,29.47,NNW,338,2.7,2.7,38,0.00,,---,0.00,VWS V14.01,2013-04-07 01:40:00,
2013-04-06 19:45:00,52.9,28.0,29.47,NNW,338,2.7,2.7,38,0.00,,---,0.00,VWS V14.01,2013-04-07 01:45:00,
2013-04-06 19:50:00,52.3,27.5,29.47,NNW,338,2.7,2.7,38,0.00,,---,0.00,VWS V14.01,2013-04-07 01:50:00,
2013-04-06 19:55:00,52.0,27.2,29.47,NNW,338,2.7,2.7,38,0.00,,---,0.00,VWS V14.01,2013-04-07 01:55:00,
2013-04-06 20:00:00,51.4,27.3,29.47,North,0,0.0,0.0,39,0.00,,---,0.00,VWS V14.01,2013-04-07 02:00:00,
2013-04-06 20:05:00,51.3,27.2,29.47,North,0,0.0,0.0,39,0.00,,---,0.00,VWS V14.01,2013-04-07 02:05:00,
2013-04-06 20:10:00,51.3,28.4,29.53,North,0,0.0,0.0,41,0.00,,---,0.00,VWS V14.01,2013-04-07 02:10:00,
2013-04-06 20:15:00,51.1,28.2,29.53,North,0,0.0,0.0,41,0.00,,---,0.00,VWS V14.01,2013-04-07 02:15:00,
2013-04-06 20:20:00,51.3,28.4,29.53,North,0,0.0,0.0,41,0.00,,---,0.00,VWS V14.01,2013-04-07 02:20:00,
2013-04-06 20:25:00,51.3,28.4,29.50,South,180,0.0,0.0,41,0.00,,---,0.00,VWS V14.01,2013-04-07 02:25:00,
2013-04-06 20:31:00,51.4,29.1,29.50,SSW,202,0.0,0.0,42,0.00,,---,0.00,VWS V14.01,2013-04-07 02:31:00,
2013-04-06 20:36:00,51.6,29.3,29.50,South,180,2.2,2.2,42,0.00,,---,0.00,VWS V14.01,2013-04-07 02:36:00,
2013-04-06 20:41:00,51.8,29.5,29.50,South,180,0.0,0.0,42,0.00,,---,0.00,VWS V14.01,2013-04-07 02:41:00,
2013-04-06 20:46:00,51.6,29.3,29.50,South,180,0.0,0.0,42,0.00,,---,0.00,VWS V14.01,2013-04-07 02:46:00,
2013-04-06 20:51:00,51.4,29.1,29.50,South,180,0.0,0.0,42,0.00,,---,0.00,VWS V14.01,2013-04-07 02:51:00,
2013-04-06 20:55:00,51.3,29.0,29.50,South,180,0.0,0.0,42,0.00,,---,0.00,VWS V14.01,2013-04-07 02:55:00,
2013-04-06 21:00:00,50.9,28.6,29.50,South,180,0.0,0.0,42,0.00,,---,0.00,VWS V14.01,2013-04-07 03:00:00,
2013-04-06 21:05:00,50.5,28.3,29.50,South,180,0.0,0.0,42,0.00,,---,0.00,VWS V14.01,2013-04-07 03:05:00,
2013-04-06 21:10:00,50.0,27.8,29.50,South,180,0.0,0.0,42,0.00,,---,0.00,VWS V14.01,2013-04-07 03:10:00,
2013-04-06 21:15:00,49.1,27.6,29.50,South,180,0.0,0.0,43,0.00,,---,0.00,VWS V14.01,2013-04-07 03:15:00,
2013-04-06 21:20:00,48.6,27.1,29.50,South,180,0.0,0.0,43,0.00,,---,0.00,VWS V14.01,2013-04-07 03:20:00,
2013-04-06 21:25:00,48.4,26.9,29.50,South,180,0.0,0.0,43,0.00,,---,0.00,VWS V14.01,2013-04-07 03:25:00,
2013-04-06 21:30:00,48.2,26.8,29.50,South,180,0.0,0.0,43,0.00,,---,0.00,VWS V14.01,2013-04-07 03:30:00,
2013-04-06 21:35:00,48.2,26.8,29.50,South,180,0.0,0.0,43,0.00,,---,0.00,VWS V14.01,2013-04-07 03:35:00,
2013-04-06 21:41:00,48.0,27.2,29.47,South,180,1.3,2.0,44,0.00,,---,0.00,VWS V14.01,2013-04-07 03:41:00,
2013-04-06 21:46:00,48.2,27.3,29.47,South,180,0.0,0.0,44,0.00,,---,0.00,VWS V14.01,2013-04-07 03:46:00,
2013-04-06 21:51:00,48.2,27.3,29.47,South,180,0.0,0.0,44,0.00,,---,0.00,VWS V14.01,2013-04-07 03:51:00,
2013-04-06 21:56:00,48.2,27.3,29.50,South,180,0.0,0.0,44,0.00,,---,0.00,VWS V14.01,2013-04-07 03:56:00,
2013-04-06 22:00:00,48.0,27.7,29.50,South,180,0.0,0.0,45,0.00,,---,0.00,VWS V14.01,2013-04-07 04:00:00,
2013-04-06 22:01:00,48.0,27.7,29.50,South,180,0.0,0.0,45,0.00,,---,0.00,VWS V14.01,2013-04-07 04:01:00,
2013-04-06 22:06:00,47.3,27.0,29.50,South,180,0.0,0.0,45,0.00,,---,0.00,VWS V14.01,2013-04-07 04:06:00,
2013-04-06 22:11:00,46.6,26.4,29.50,SSW,202,0.0,0.0,45,0.00,,---,0.00,VWS V14.01,2013-04-07 04:11:00,
2013-04-06 22:16:00,46.0,26.4,29.50,SSW,202,0.0,0.0,46,0.00,,---,0.00,VWS V14.01,2013-04-07 04:16:00,
2013-04-06 22:21:00,45.1,25.6,29.50,SSW,202,0.0,0.0,46,0.00,,---,0.00,VWS V14.01,2013-04-07 04:21:00,
2013-04-06 22:26:00,45.0,25.4,29.50,South,180,0.0,0.0,46,0.00,,---,0.00,VWS V14.01,2013-04-07 04:26:00,
2013-04-06 22:31:00,44.6,25.6,29.50,South,180,0.0,0.0,47,0.00,,---,0.00,VWS V14.01,2013-04-07 04:31:00,
2013-04-06 22:36:00,44.1,25.6,29.50,South,180,0.0,0.0,48,0.00,,---,0.00,VWS V14.01,2013-04-07 04:36:00,
2013-04-06 22:41:00,43.9,26.0,29.53,South,180,0.0,0.0,49,0.00,,---,0.00,VWS V14.01,2013-04-07 04:41:00,
2013-04-06 22:46:00,43.7,26.3,29.53,South,180,0.0,0.0,50,0.00,,---,0.00,VWS V14.01,2013-04-07 04:46:00,
2013-04-06 22:51:00,43.5,26.1,29.53,South,180,0.0,0.0,50,0.00,,---,0.00,VWS V14.01,2013-04-07 04:51:00,
2013-04-06 22:56:00,43.3,26.0,29.50,South,180,0.0,0.0,50,0.00,,---,0.00,VWS V14.01,2013-04-07 04:56:00,
2013-04-06 23:01:00,43.0,25.6,29.50,South,180,0.0,0.0,50,0.00,,---,0.00,VWS V14.01,2013-04-07 05:01:00,
2013-04-06 23:06:00,42.4,25.6,29.50,South,180,0.0,0.0,51,0.00,,---,0.00,VWS V14.01,2013-04-07 05:06:00,
2013-04-06 23:11:00,42.3,25.4,29.50,South,180,0.0,0.0,51,0.00,,---,0.00,VWS V14.01,2013-04-07 05:11:00,
2013-04-06 23:16:00,42.1,25.7,29.50,South,180,0.0,0.0,52,0.00,,---,0.00,VWS V14.01,2013-04-07 05:16:00,
2013-04-06 23:20:00,41.7,25.9,29.50,South,180,0.0,0.0,53,0.00,,---,0.00,VWS V14.01,2013-04-07 05:20:00,
2013-04-06 23:26:00,41.9,26.0,29.47,South,180,0.0,0.0,53,0.00,,---,0.00,VWS V14.01,2013-04-07 05:26:00,
2013-04-06 23:30:00,41.9,26.0,29.47,NE,45,0.0,0.0,53,0.00,,---,0.00,VWS V14.01,2013-04-07 05:30:00,
2013-04-06 23:35:00,41.9,26.0,29.47,SE,135,0.0,0.0,53,0.00,,---,0.00,VWS V14.01,2013-04-07 05:35:00,
2013-04-06 23:40:00,41.7,25.9,29.50,SE,135,0.0,0.0,53,0.00,,---,0.00,VWS V14.01,2013-04-07 05:40:00,
2013-04-06 23:46:00,41.2,25.4,29.50,SE,135,0.0,0.0,53,0.00,,---,0.00,VWS V14.01,2013-04-07 05:46:00,
2013-04-06 23:51:00,40.8,25.5,29.50,SE,135,0.0,0.0,54,0.00,,---,0.00,VWS V14.01,2013-04-07 05:51:00,
2013-04-06 23:56:00,40.6,25.3,29.53,SE,135,0.0,0.0,54,0.00,,---,0.00,VWS V14.01,2013-04-07 05:56:00,